Time,TemperatureF,DewpointF,PressureIn,WindDirection,WindDirectionDegrees,WindSpeedMPH,WindSpeedGustMPH,Humidity,HourlyPrecipIn,Conditions,Clouds,dailyrainin,SolarRadiationWatts/m^2,SoftwareType,DateUTC
2013-03-26 00:00:00,34.6,26.5,29.74,NW,316,0.0,3.0,72,0.00,,CLR,0.55,0.00,VWS V14.01,2013-03-26 04:00:00,
2013-03-26 00:01:00,34.5,26.4,29.74,NW,316,0.0,3.0,72,0.00,,CLR,0.55,0.00,VWS V14.01,2013-03-26 04:01:00,
2013-03-26 00:02:00,34.6,26.5,29.74,NW,316,0.0,0.0,72,0.00,,CLR,0.00,0.00,VWS V14.01,2013-03-26 04:02:00,
2013-03-26 00:07:00,34.5,26.4,29.74,West,270,7.0,7.0,72,0.00,,CLR,0.00,0.00,VWS V14.01,2013-03-26 04:07:00,
2013-03-26 00:12:00,34.6,26.5,29.74,NW,319,0.0,1.0,72,0.00,,CLR,0.00,0.00,VWS V14.01,2013-03-26 04:12:00,
2013-03-26 00:18:00,34.8,26.7,29.74,NW,326,0.0,2.0,72,0.00,,CLR,0.00,0.00,VWS V14.01,2013-03-26 04:18:00,
2013-03-26 00:23:00,34.8,26.4,29.74,NNW,342,0.0,3.0,71,0.00,,CLR,0.00,0.00,VWS V14.01,2013-03-26 04:23:00,
2013-03-26 00:28:00,34.8,26.0,29.74,WSW,256,0.0,5.0,70,0.00,,CLR,0.00,0.00,VWS V14.01,2013-03-26 04:28:00,
2013-03-26 00:33:00,34.9,26.1,29.74,WNW,295,1.0,4.0,70,0.00,,CLR,0.00,0.00,VWS V14.01,2013-03-26 04:33:00,
2013-03-26 00:38:00,34.9,26.1,29.74,WNW,295,0.0,4.0,70,0.00,,CLR,0.00,0.00,VWS V14.01,2013-03-26 04:38:00,
2013-03-26 00:43:00,34.9,26.8,29.74,WNW,295,0.0,0.0,72,0.00,,CLR,0.00,0.00,VWS V14.01,2013-03-26 04:43:00,
2013-03-26 00:48:00,34.8,27.0,29.75,WNW,295,0.0,0.0,73,0.00,,CLR,0.00,0.00,VWS V14.01,2013-03-26 04:48:00,
2013-03-26 00:53:00,34.8,26.7,29.75,WNW,295,0.0,0.0,72,0.01,,CLR,0.01,0.00,VWS V14.01,2013-03-26 04:53:00,
2013-03-26 00:58:00,34.6,26.5,29.75,WSW,239,0.0,2.0,72,0.01,,CLR,0.01,0.00,VWS V14.01,2013-03-26 04:58:00,
2013-03-26 01:03:00,34.8,27.0,29.75,WSW,239,0.0,0.0,73,0.01,,CLR,0.01,0.00,VWS V14.01,2013-03-26 05:03:00,
2013-03-26 01:08:00,34.6,26.9,29.75,WSW,239,0.0,0.0,73,0.01,,CLR,0.01,0.00,VWS V14.01,2013-03-26 05:08:00,
2013-03-26 01:13:00,34.6,26.9,29.75,SW,236,0.0,0.0,73,0.01,,CLR,0.01,0.00,VWS V14.01,2013-03-26 05:13:00,
2013-03-26 01:18:00,34.6,26.9,29.75,SW,236,0.0,3.0,73,0.01,,CLR,0.01,0.00,VWS V14.01,2013-03-26 05:18:00,
2013-03-26 01:23:00,34.6,27.2,29.75,SW,236,0.0,0.0,74,0.01,,CLR,0.01,0.00,VWS V14.01,2013-03-26 05:23:00,
2013-03-26 01:29:00,34.5,27.4,29.75,SW,236,0.0,0.0,75,0.01,,CLR,0.01,0.00,VWS V14.01,2013-03-26 05:29:00,
2013-03-26 01:34:00,34.3,27.2,29.75,SW,236,1.0,1.0,75,0.01,,CLR,0.01,0.00,VWS V14.01,2013-03-26 05:34:00,
2013-03-26 01:39:00,34.5,27.1,29.75,WSW,237,1.0,3.0,74,0.01,,CLR,0.01,0.00,VWS V14.01,2013-03-26 05:39:00,
2013-03-26 01:44:00,34.5,27.1,29.75,WSW,237,0.0,0.0,74,0.01,,CLR,0.01,0.00,VWS V14.01,2013-03-26 05:44:00,
2013-03-26 01:49:00,34.5,26.8,29.75,WSW,248,1.0,3.0,73,0.01,,CLR,0.01,0.00,VWS V14.01,2013-03-26 05:49:00,
2013-03-26 01:54:00,34.8,26.7,29.75,West,264,0.0,3.0,72,0.00,,CLR,0.01,0.00,VWS V14.01,2013-03-26 05:54:00,
2013-03-26 02:00:00,34.8,26.7,29.75,West,274,2.0,3.0,72,0.00,,CLR,0.01,0.00,VWS V14.01,2013-03-26 06:00:00,
2013-03-26 02:05:00,34.6,26.9,29.76,WNW,289,1.0,3.0,73,0.00,,CLR,0.01,0.00,VWS V14.01,2013-03-26 06:05:00,
2013-03-26 02:10:00,34.8,27.0,29.76,NNW,336,2.0,6.0,73,0.00,,CLR,0.01,0.00,VWS V14.01,2013-03-26 06:10:00,
2013-03-26 02:15:00,34.8,27.0,29.76,NNW,335,0.0,2.0,73,0.00,,CLR,0.01,0.00,VWS V14.01,2013-03-26 06:15:00,
2013-03-26 02:20:00,34.8,27.0,29.76,NNW,332,4.0,5.0,73,0.00,,CLR,0.01,0.00,VWS V14.01,2013-03-26 06:20:00,
2013-03-26 02:25:00,34.8,27.0,29.76,NW,309,3.0,5.0,73,0.00,,CLR,0.01,0.00,VWS V14.01,2013-03-26 06:25:00,
2013-03-26 02:30:00,34.9,26.8,29.76,NW,309,0.0,5.0,72,0.00,,CLR,0.01,0.00,VWS V14.01,2013-03-26 06:30:00,
2013-03-26 02:35:00,34.9,27.1,29.76,NNW,336,1.0,6.0,73,0.00,,CLR,0.01,0.00,VWS V14.01,2013-03-26 06:35:00,
2013-03-26 02:41:00,35.0,26.9,29.76,NNW,330,0.0,6.0,72,0.00,,CLR,0.01,0.00,VWS V14.01,2013-03-26 06:41:00,
2013-03-26 02:46:00,35.0,27.2,29.76,NNW,330,0.0,0.0,73,0.00,,CLR,0.01,0.00,VWS V14.01,2013-03-26 06:46:00,
2013-03-26 02:51:00,34.9,27.1,29.76,NNW,330,0.0,1.0,73,0.00,,CLR,0.01,0.00,VWS V14.01,2013-03-26 06:51:00,
2013-03-26 02:57:00,34.9,26.8,29.76,NNW,342,1.0,4.0,72,0.00,,CLR,0.01,0.00,VWS V14.01,2013-03-26 06:57:00,
2013-03-26 03:02:00,34.9,27.5,29.77,NNW,342,1.0,4.0,74,0.00,,CLR,0.01,0.00,VWS V14.01,2013-03-26 07:02:00,
2013-03-26 03:07:00,34.9,27.1,29.77,NW,323,0.0,6.0,73,0.00,,CLR,0.01,0.00,VWS V14.01,2013-03-26 07:07:00,
2013-03-26 03:12:00,34.9,27.1,29.77,NW,323,0.0,6.0,73,0.00,,CLR,0.01,0.00,VWS V14.01,2013-03-26 07:12:00,
2013-03-26 03:17:00,34.9,27.1,29.78,NW,323,3.0,3.0,73,0.00,,CLR,0.01,0.00,VWS V14.01,2013-03-26 07:17:00,
2013-03-26 03:22:00,34.9,27.1,29.78,NW,326,0.0,0.0,73,0.00,,CLR,0.01,0.00,VWS V14.01,2013-03-26 07:22:00,
2013-03-26 03:27:00,34.9,27.1,29.78,NW,311,2.0,7.0,73,0.00,,CLR,0.01,0.00,VWS V14.01,2013-03-26 07:27:00,
2013-03-26 03:32:00,35.0,27.2,29.78,WNW,289,0.0,0.0,73,0.00,,CLR,0.01,0.00,VWS V14.01,2013-03-26 07:32:00,
2013-03-26 03:37:00,35.0,26.9,29.78,WNW,289,0.0,2.0,72,0.00,,CLR,0.01,0.00,VWS V14.01,2013-03-26 07:37:00,
2013-03-26 03:42:00,35.0,26.9,29.78,WNW,285,0.0,0.0,72,0.00,,CLR,0.01,0.00,VWS V14.01,2013-03-26 07:42:00,
2013-03-26 03:48:00,35.0,26.9,29.78,WNW,287,0.0,2.0,72,0.00,,CLR,0.01,0.00,VWS V14.01,2013-03-26 07:48:00,
2013-03-26 03:53:00,35.0,26.9,29.78,WNW,287,0.0,0.0,72,0.00,,CLR,0.01,0.00,VWS V14.01,2013-03-26 07:53:00,
2013-03-26 03:58:00,35.0,27.2,29.78,WNW,287,0.0,0.0,73,0.00,,CLR,0.01,0.00,VWS V14.01,2013-03-26 07:58:00,
2013-03-26 04:03:00,35.0,27.2,29.78,WNW,287,0.0,0.0,73,0.00,,CLR,0.01,0.00,VWS V14.01,2013-03-26 08:03:00,
2013-03-26 04:08:00,34.9,27.5,29.78,WNW,287,0.0,1.0,74,0.00,,CLR,0.01,0.00,VWS V14.01,2013-03-26 08:08:00,
2013-03-26 04:13:00,34.9,27.8,29.78,WNW,287,0.0,0.0,75,0.00,,CLR,0.01,0.00,VWS V14.01,2013-03-26 08:13:00,
2013-03-26 04:18:00,34.6,28.1,29.78,WNW,287,0.0,0.0,77,0.00,,CLR,0.01,0.00,VWS V14.01,2013-03-26 08:18:00,
2013-03-26 04:23:00,34.3,27.9,29.78,WNW,287,0.0,0.0,77,0.01,,CLR,0.02,0.00,VWS V14.01,2013-03-26 08:23:00,
2013-03-26 04:28:00,34.3,27.9,29.78,WNW,287,0.0,0.0,77,0.01,,CLR,0.02,0.00,VWS V14.01,2013-03-26 08:28:00,
2013-03-26 04:33:00,34.3,27.9,29.78,WNW,287,0.0,0.0,77,0.01,,CLR,0.02,0.00,VWS V14.01,2013-03-26 08:33:00,
2013-03-26 04:38:00,34.2,28.4,29.78,East,97,1.0,3.0,79,0.01,,CLR,0.02,0.00,VWS V14.01,2013-03-26 08:38:00,
2013-03-26 04:43:00,33.9,28.4,29.78,ESE,113,0.0,0.0,80,0.01,,CLR,0.02,0.00,VWS V14.01,2013-03-26 08:43:00,
2013-03-26 04:48:00,33.7,28.5,29.79,ESE,113,0.0,0.0,81,0.01,,CLR,0.02,0.00,VWS V14.01,2013-03-26 08:48:00,
2013-03-26 04:53:00,33.6,28.4,29.79,ESE,112,0.0,0.0,81,0.01,,CLR,0.02,0.00,VWS V14.01,2013-03-26 08:53:00,
2013-03-26 04:59:00,33.6,28.4,29.79,ESE,112,0.0,0.0,81,0.01,,CLR,0.02,0.00,VWS V14.01,2013-03-26 08:59:00,
2013-03-26 05:04:00,33.4,28.5,29.80,ESE,112,0.0,0.0,82,0.01,,CLR,0.02,0.00,VWS V14.01,2013-03-26 09:04:00,
2013-03-26 05:09:00,33.4,28.5,29.80,North,357,0.0,2.0,82,0.01,,CLR,0.02,0.00,VWS V14.01,2013-03-26 09:09:00,
2013-03-26 05:14:00,33.6,28.4,29.80,NE,47,0.0,2.0,81,0.01,,CLR,0.02,0.00,VWS V14.01,2013-03-26 09:14:00,
2013-03-26 05:19:00,33.7,28.5,29.80,North,0,2.0,8.0,81,0.01,,CLR,0.02,0.00,VWS V14.01,2013-03-26 09:19:00,
2013-03-26 05:24:00,34.3,28.5,29.80,North,7,3.0,4.0,79,0.00,,CLR,0.02,0.00,VWS V14.01,2013-03-26 09:24:00,
2013-03-26 05:29:00,34.9,28.1,29.80,NNE,31,3.0,8.0,76,0.00,,CLR,0.02,0.00,VWS V14.01,2013-03-26 09:29:00,
2013-03-26 05:34:00,35.5,28.0,29.81,NE,52,3.0,6.0,74,0.00,,CLR,0.02,0.00,VWS V14.01,2013-03-26 09:34:00,
2013-03-26 05:39:00,35.5,28.0,29.81,NE,45,4.0,6.0,74,0.00,,CLR,0.02,0.00,VWS V14.01,2013-03-26 09:39:00,
2013-03-26 05:44:00,35.5,28.4,29.81,East,85,2.0,3.0,75,0.00,,CLR,0.02,0.00,VWS V14.01,2013-03-26 09:44:00,
2013-03-26 05:50:00,35.5,28.4,29.81,NE,38,7.0,7.0,75,0.00,,CLR,0.02,0.00,VWS V14.01,2013-03-26 09:50:00,
2013-03-26 05:55:00,35.5,28.0,29.81,ENE,76,2.0,6.0,74,0.00,,CLR,0.02,0.00,VWS V14.01,2013-03-26 09:55:00,
2013-03-26 06:00:00,35.5,28.0,29.81,ENE,75,6.0,7.0,74,0.00,,CLR,0.02,0.00,VWS V14.01,2013-03-26 10:00:00,
2013-03-26 06:05:00,35.5,28.0,29.81,NE,45,2.0,4.0,74,0.00,,CLR,0.02,0.00,VWS V14.01,2013-03-26 10:05:00,
2013-03-26 06:10:00,35.3,28.2,29.81,East,79,0.0,5.0,75,0.00,,CLR,0.02,0.00,VWS V14.01,2013-03-26 10:10:00,
2013-03-26 06:15:00,35.3,28.2,29.81,SE,133,0.0,1.0,75,0.00,,CLR,0.02,0.00,VWS V14.01,2013-03-26 10:15:00,
2013-03-26 06:20:00,35.2,28.1,29.81,SE,134,0.0,5.0,75,0.00,,CLR,0.02,0.00,VWS V14.01,2013-03-26 10:20:00,
2013-03-26 06:26:00,34.9,28.1,29.81,SE,134,0.0,0.0,76,0.00,,CLR,0.02,0.00,VWS V14.01,2013-03-26 10:26:00,
2013-03-26 06:31:00,34.5,28.0,29.82,SE,133,0.0,1.0,77,0.00,,CLR,0.02,0.00,VWS V14.01,2013-03-26 10:31:00,
2013-03-26 06:36:00,34.3,27.9,29.82,SE,133,0.0,0.0,77,0.00,,CLR,0.02,0.00,VWS V14.01,2013-03-26 10:36:00,
2013-03-26 06:41:00,34.2,28.1,29.82,SE,134,0.0,0.0,78,0.00,,CLR,0.02,0.00,VWS V14.01,2013-03-26 10:41:00,
2013-03-26 06:46:00,33.9,28.1,29.83,SE,133,0.0,0.0,79,0.00,,CLR,0.02,0.00,VWS V14.01,2013-03-26 10:46:00,
2013-03-26 06:52:00,33.9,28.1,29.83,SE,133,0.0,0.0,79,0.00,,CLR,0.02,0.00,VWS V14.01,2013-03-26 10:52:00,
2013-03-26 06:57:00,33.7,28.2,29.83,SE,134,0.0,0.0,80,0.00,,CLR,0.02,0.00,VWS V14.01,2013-03-26 10:57:00,
2013-03-26 07:02:00,33.7,28.2,29.84,SE,134,0.0,0.0,80,0.00,,CLR,0.02,0.00,VWS V14.01,2013-03-26 11:02:00,
2013-03-26 07:07:00,33.6,28.1,29.84,SE,134,0.0,0.0,80,0.00,,CLR,0.02,0.00,VWS V14.01,2013-03-26 11:07:00,
2013-03-26 07:12:00,33.6,28.1,29.84,SE,134,0.0,0.0,80,0.00,,CLR,0.02,5.00,VWS V14.01,2013-03-26 11:12:00,
2013-03-26 07:17:00,33.6,28.4,29.85,SE,134,0.0,0.0,81,0.00,,CLR,0.02,5.00,VWS V14.01,2013-03-26 11:17:00,
2013-03-26 07:22:00,33.4,28.2,29.85,SE,134,0.0,0.0,81,0.00,,CLR,0.02,9.00,VWS V14.01,2013-03-26 11:22:00,
2013-03-26 07:27:00,33.4,28.2,29.85,SE,134,0.0,0.0,81,0.00,,CLR,0.02,12.00,VWS V14.01,2013-03-26 11:27:00,
2013-03-26 07:32:00,33.4,28.2,29.86,SE,133,0.0,0.0,81,0.00,,CLR,0.02,14.00,VWS V14.01,2013-03-26 11:32:00,
2013-03-26 07:37:00,33.4,28.2,29.86,SE,134,0.0,0.0,81,0.00,,CLR,0.02,14.00,VWS V14.01,2013-03-26 11:37:00,
2013-03-26 07:42:00,33.6,28.4,29.86,SE,134,0.0,0.0,81,0.00,,CLR,0.02,14.00,VWS V14.01,2013-03-26 11:42:00,
2013-03-26 07:47:00,33.6,28.4,29.86,SE,134,0.0,0.0,81,0.00,,CLR,0.02,14.00,VWS V14.01,2013-03-26 11:47:00,
2013-03-26 07:52:00,33.6,28.4,29.86,SE,134,0.0,0.0,81,0.00,,CLR,0.02,12.00,VWS V14.01,2013-03-26 11:52:00,
2013-03-26 07:57:00,33.4,28.2,29.86,SE,133,0.0,0.0,81,0.00,,CLR,0.02,11.00,VWS V14.01,2013-03-26 11:57:00,
2013-03-26 08:02:00,33.4,28.2,29.88,SE,133,0.0,0.0,81,0.00,,CLR,0.02,12.00,VWS V14.01,2013-03-26 12:02:00,
2013-03-26 08:08:00,33.6,28.7,29.88,SE,133,0.0,0.0,82,0.00,,CLR,0.02,33.00,VWS V14.01,2013-03-26 12:08:00,
2013-03-26 08:13:00,33.6,28.7,29.88,SE,140,0.0,0.0,82,0.00,,CLR,0.02,44.00,VWS V14.01,2013-03-26 12:13:00,
2013-03-26 08:18:00,33.7,28.8,29.88,SE,140,0.0,0.0,82,0.00,,CLR,0.02,53.00,VWS V14.01,2013-03-26 12:18:00,
2013-03-26 08:23:00,33.9,29.0,29.88,SSE,148,0.0,0.0,82,0.00,,CLR,0.02,70.00,VWS V14.01,2013-03-26 12:23:00,
2013-03-26 08:28:00,34.2,29.3,29.88,SSE,151,0.0,0.0,82,0.00,,CLR,0.02,88.00,VWS V14.01,2013-03-26 12:28:00,
2013-03-26 08:33:00,34.3,29.4,29.89,SSE,151,0.0,0.0,82,0.00,,CLR,0.02,102.00,VWS V14.01,2013-03-26 12:33:00,
2013-03-26 08:38:00,34.5,29.3,29.89,NE,44,0.0,3.0,81,0.00,,CLR,0.02,107.00,VWS V14.01,2013-03-26 12:38:00,
2013-03-26 08:43:00,34.8,28.6,29.89,NE,49,2.0,2.0,78,0.00,,CLR,0.02,148.00,VWS V14.01,2013-03-26 12:43:00,
2013-03-26 08:48:00,35.3,27.9,29.90,North,10,8.0,8.0,74,0.00,,CLR,0.02,151.00,VWS V14.01,2013-03-26 12:48:00,
2013-03-26 08:53:00,35.9,27.8,29.90,ENE,58,8.0,8.0,72,0.00,,CLR,0.02,148.00,VWS V14.01,2013-03-26 12:53:00,
2013-03-26 08:58:00,36.3,25.7,29.90,NE,38,6.0,12.0,65,0.00,,CLR,0.02,169.00,VWS V14.01,2013-03-26 12:58:00,
2013-03-26 09:04:00,36.6,24.4,29.90,NNE,17,6.0,7.0,61,0.00,,CLR,0.02,179.00,VWS V14.01,2013-03-26 13:04:00,
2013-03-26 09:09:00,36.8,24.6,29.90,NNE,28,3.0,7.0,61,0.00,,CLR,0.02,165.00,VWS V14.01,2013-03-26 13:09:00,
2013-03-26 09:14:00,36.8,24.2,29.90,ENE,62,5.0,8.0,60,0.00,,CLR,0.02,155.00,VWS V14.01,2013-03-26 13:14:00,
2013-03-26 09:19:00,36.8,23.8,29.91,NNE,21,3.0,8.0,59,0.00,,CLR,0.02,165.00,VWS V14.01,2013-03-26 13:19:00,
2013-03-26 09:24:00,36.8,23.8,29.91,NNE,31,3.0,5.0,59,0.00,,CLR,0.02,153.00,VWS V14.01,2013-03-26 13:24:00,
2013-03-26 09:29:00,36.8,23.8,29.91,North,7,5.0,10.0,59,0.00,,CLR,0.02,153.00,VWS V14.01,2013-03-26 13:29:00,
2013-03-26 09:34:00,36.8,23.8,29.92,NNE,13,3.0,8.0,59,0.00,,CLR,0.02,158.00,VWS V14.01,2013-03-26 13:34:00,
2013-03-26 09:39:00,36.8,23.8,29.92,NE,37,3.0,8.0,59,0.00,,CLR,0.02,164.00,VWS V14.01,2013-03-26 13:39:00,
2013-03-26 09:44:00,36.9,23.5,29.92,NNE,17,7.0,8.0,58,0.00,,CLR,0.02,179.00,VWS V14.01,2013-03-26 13:44:00,
2013-03-26 09:49:00,37.0,23.6,29.92,NE,34,2.0,8.0,58,0.00,,CLR,0.02,179.00,VWS V14.01,2013-03-26 13:49:00,
2013-03-26 09:54:00,37.2,23.8,29.92,NNE,16,5.0,6.0,58,0.00,,CLR,0.02,216.00,VWS V14.01,2013-03-26 13:54:00,
2013-03-26 10:00:00,37.2,23.8,29.92,North,7,3.0,10.0,58,0.00,,CLR,0.02,246.00,VWS V14.01,2013-03-26 14:00:00,
2013-03-26 10:05:00,37.3,24.3,29.92,NNE,27,5.0,6.0,59,0.01,,CLR,0.03,257.00,VWS V14.01,2013-03-26 14:05:00,
2013-03-26 10:10:00,37.3,23.5,29.92,NE,55,6.0,10.0,57,0.01,,CLR,0.03,269.00,VWS V14.01,2013-03-26 14:10:00,
2013-03-26 10:15:00,37.3,23.9,29.92,NNE,18,5.0,7.0,58,0.01,,CLR,0.03,303.00,VWS V14.01,2013-03-26 14:15:00,
2013-03-26 10:20:00,37.5,24.1,29.92,NNE,32,5.0,10.0,58,0.01,,CLR,0.03,250.00,VWS V14.01,2013-03-26 14:20:00,
2013-03-26 10:25:00,37.5,24.1,29.92,NNE,16,7.0,12.0,58,0.01,,CLR,0.03,229.00,VWS V14.01,2013-03-26 14:25:00,
2013-03-26 10:30:00,37.5,24.1,29.92,NE,35,8.0,12.0,58,0.01,,CLR,0.03,296.00,VWS V14.01,2013-03-26 14:30:00,
2013-03-26 10:35:00,37.9,24.0,29.92,NNE,27,2.0,6.0,57,0.02,,CLR,0.04,296.00,VWS V14.01,2013-03-26 14:35:00,
2013-03-26 10:40:00,38.2,24.7,29.92,East,88,3.0,6.0,58,0.02,,CLR,0.04,317.00,VWS V14.01,2013-03-26 14:40:00,
2013-03-26 10:45:00,38.8,25.3,29.92,NNE,32,3.0,5.0,58,0.02,,CLR,0.04,493.00,VWS V14.01,2013-03-26 14:45:00,
2013-03-26 10:50:00,39.1,24.3,29.92,NNE,20,1.0,5.0,55,0.02,,CLR,0.04,394.00,VWS V14.01,2013-03-26 14:50:00,
2013-03-26 10:55:00,39.1,24.7,29.92,NE,38,2.0,5.0,56,0.02,,CLR,0.04,364.00,VWS V14.01,2013-03-26 14:55:00,
2013-03-26 11:00:00,39.2,25.3,29.92,NE,37,2.0,5.0,57,0.02,,CLR,0.04,331.00,VWS V14.01,2013-03-26 15:00:00,
2013-03-26 11:06:00,39.2,25.3,29.93,ENE,68,2.0,6.0,57,0.02,,CLR,0.04,313.00,VWS V14.01,2013-03-26 15:06:00,
2013-03-26 11:11:00,39.2,25.3,29.93,ENE,61,2.0,6.0,57,0.02,,CLR,0.04,401.00,VWS V14.01,2013-03-26 15:11:00,
2013-03-26 11:16:00,39.3,25.4,29.93,NE,40,2.0,5.0,57,0.01,,CLR,0.04,384.00,VWS V14.01,2013-03-26 15:16:00,
2013-03-26 11:21:00,39.5,25.1,29.93,NE,52,2.0,5.0,56,0.01,,CLR,0.04,581.00,VWS V14.01,2013-03-26 15:21:00,
2013-03-26 11:26:00,40.1,25.2,29.93,ENE,65,0.0,6.0,55,0.01,,CLR,0.04,500.00,VWS V14.01,2013-03-26 15:26:00,
2013-03-26 11:31:00,40.1,24.4,29.93,NNE,16,11.0,12.0,53,0.01,,CLR,0.04,401.00,VWS V14.01,2013-03-26 15:31:00,
2013-03-26 11:37:00,39.8,24.5,29.93,North,8,4.0,8.0,54,0.00,,CLR,0.04,322.00,VWS V14.01,2013-03-26 15:37:00,
2013-03-26 11:42:00,39.6,23.9,29.93,NNE,21,4.0,9.0,53,0.00,,CLR,0.04,354.00,VWS V14.01,2013-03-26 15:42:00,
2013-03-26 11:47:00,39.6,24.8,29.93,North,0,6.0,8.0,55,0.00,,CLR,0.04,283.00,VWS V14.01,2013-03-26 15:47:00,
2013-03-26 11:52:00,39.5,24.2,29.93,North,0,4.0,7.0,54,0.00,,CLR,0.04,282.00,VWS V14.01,2013-03-26 15:52:00,
2013-03-26 11:57:00,39.3,24.9,29.93,NNE,25,5.0,13.0,56,0.00,,CLR,0.04,213.00,VWS V14.01,2013-03-26 15:57:00,
2013-03-26 12:02:00,39.5,24.7,29.94,North,0,2.0,4.0,55,0.00,,CLR,0.04,169.00,VWS V14.01,2013-03-26 16:02:00,
2013-03-26 12:07:00,39.3,24.5,29.94,North,11,11.0,11.0,55,0.00,,CLR,0.04,120.00,VWS V14.01,2013-03-26 16:07:00,
2013-03-26 12:13:00,38.9,24.6,29.94,North,10,12.0,12.0,56,0.00,,CLR,0.04,167.00,VWS V14.01,2013-03-26 16:13:00,
2013-03-26 12:18:00,38.5,25.4,29.95,North,7,8.0,13.0,59,0.00,,CLR,0.04,174.00,VWS V14.01,2013-03-26 16:18:00,
2013-03-26 12:23:00,37.6,27.3,29.95,North,6,3.0,10.0,66,0.00,,CLR,0.04,299.00,VWS V14.01,2013-03-26 16:23:00,
2013-03-26 12:28:00,37.6,26.9,29.95,North,0,3.0,10.0,65,0.00,,CLR,0.04,380.00,VWS V14.01,2013-03-26 16:28:00,
2013-03-26 12:33:00,38.1,26.2,29.95,North,0,6.0,10.0,62,0.00,,CLR,0.04,396.00,VWS V14.01,2013-03-26 16:33:00,
2013-03-26 12:38:00,38.2,27.1,29.95,North,0,7.0,17.0,64,0.00,,CLR,0.04,320.00,VWS V14.01,2013-03-26 16:38:00,
2013-03-26 12:44:00,38.2,27.9,29.95,NNW,336,3.0,9.0,66,0.00,,CLR,0.04,477.00,VWS V14.01,2013-03-26 16:44:00,
2013-03-26 12:49:00,38.3,27.6,29.95,NNW,343,7.0,9.0,65,0.00,,CLR,0.04,426.00,VWS V14.01,2013-03-26 16:49:00,
2013-03-26 12:54:00,38.8,27.3,29.95,North,0,5.0,8.0,63,0.00,,CLR,0.04,324.00,VWS V14.01,2013-03-26 16:54:00,
2013-03-26 12:59:00,39.1,26.8,29.95,NNE,21,6.0,8.0,61,0.00,,CLR,0.04,243.00,VWS V14.01,2013-03-26 16:59:00,
2013-03-26 13:04:00,39.1,25.6,29.94,North,11,4.0,7.0,58,0.00,,CLR,0.04,238.00,VWS V14.01,2013-03-26 17:04:00,
2013-03-26 13:09:00,39.1,26.0,29.94,North,6,6.0,12.0,59,0.00,,CLR,0.04,197.00,VWS V14.01,2013-03-26 17:09:00,
2013-03-26 13:14:00,38.6,27.1,29.94,North,359,3.0,6.0,63,0.00,,CLR,0.04,118.00,VWS V14.01,2013-03-26 17:14:00,
2013-03-26 13:19:00,38.3,26.8,29.95,North,0,5.0,8.0,63,0.00,,CLR,0.04,174.00,VWS V14.01,2013-03-26 17:19:00,
2013-03-26 13:24:00,38.3,27.2,29.95,North,7,2.0,3.0,64,0.00,,CLR,0.04,243.00,VWS V14.01,2013-03-26 17:24:00,
2013-03-26 13:29:00,38.6,26.7,29.95,NNE,17,2.0,5.0,62,0.00,,CLR,0.04,308.00,VWS V14.01,2013-03-26 17:29:00,
2013-03-26 13:34:00,39.2,26.5,29.94,NNE,13,2.0,4.0,60,0.00,,CLR,0.04,375.00,VWS V14.01,2013-03-26 17:34:00,
2013-03-26 13:39:00,39.8,27.1,29.94,North,0,4.0,14.0,60,0.00,,CLR,0.04,345.00,VWS V14.01,2013-03-26 17:39:00,
2013-03-26 13:44:00,40.8,28.0,29.94,NNE,24,7.0,10.0,60,0.00,,CLR,0.04,1024.00,VWS V14.01,2013-03-26 17:44:00,
2013-03-26 13:49:00,41.1,27.5,29.94,North,350,12.0,12.0,58,0.00,,CLR,0.04,387.00,VWS V14.01,2013-03-26 17:49:00,
2013-03-26 13:55:00,40.8,27.2,29.94,NNE,17,5.0,10.0,58,0.00,,CLR,0.04,373.00,VWS V14.01,2013-03-26 17:55:00,
2013-03-26 14:00:00,40.5,26.9,29.94,North,0,9.0,17.0,58,0.00,,CLR,0.04,223.00,VWS V14.01,2013-03-26 18:00:00,
2013-03-26 14:05:00,40.1,26.1,29.94,North,359,7.0,14.0,57,0.00,,CLR,0.04,248.00,VWS V14.01,2013-03-26 18:05:00,
2013-03-26 14:10:00,40.1,25.7,29.94,North,0,4.0,14.0,56,0.00,,CLR,0.04,324.00,VWS V14.01,2013-03-26 18:10:00,
2013-03-26 14:15:00,40.3,26.3,29.94,North,0,8.0,11.0,57,0.00,,CLR,0.04,357.00,VWS V14.01,2013-03-26 18:15:00,
2013-03-26 14:20:00,40.8,25.9,29.94,NNE,25,7.0,11.0,55,0.00,,CLR,0.04,401.00,VWS V14.01,2013-03-26 18:20:00,
2013-03-26 14:25:00,40.9,25.5,29.94,North,0,6.0,16.0,54,0.00,,CLR,0.04,401.00,VWS V14.01,2013-03-26 18:25:00,
2013-03-26 14:30:00,40.9,26.0,29.94,NNE,20,7.0,16.0,55,0.00,,CLR,0.04,322.00,VWS V14.01,2013-03-26 18:30:00,
2013-03-26 14:35:00,40.9,26.0,29.94,NE,56,14.0,14.0,55,0.00,,CLR,0.04,326.00,VWS V14.01,2013-03-26 18:35:00,
2013-03-26 14:40:00,40.9,26.0,29.94,North,0,6.0,14.0,55,0.00,,CLR,0.04,303.00,VWS V14.01,2013-03-26 18:40:00,
2013-03-26 14:45:00,41.1,25.7,29.94,NNE,17,6.0,9.0,54,0.00,,CLR,0.04,370.00,VWS V14.01,2013-03-26 18:45:00,
2013-03-26 14:50:00,41.3,26.4,29.93,North,359,2.0,9.0,55,0.00,,CLR,0.04,389.00,VWS V14.01,2013-03-26 18:50:00,
2013-03-26 14:56:00,41.6,26.2,29.93,NNE,13,2.0,8.0,54,0.00,,CLR,0.04,283.00,VWS V14.01,2013-03-26 18:56:00,
2013-03-26 15:01:00,41.8,26.8,29.93,North,11,7.0,8.0,55,0.00,,CLR,0.04,183.00,VWS V14.01,2013-03-26 19:01:00,
2013-03-26 15:06:00,41.3,26.4,29.93,North,0,5.0,11.0,55,0.00,,CLR,0.04,172.00,VWS V14.01,2013-03-26 19:06:00,
2013-03-26 15:12:00,41.2,27.1,29.93,NNE,32,8.0,11.0,57,0.00,,CLR,0.04,215.00,VWS V14.01,2013-03-26 19:12:00,
2013-03-26 15:17:00,41.3,27.2,29.93,North,359,2.0,8.0,57,0.00,,CLR,0.04,301.00,VWS V14.01,2013-03-26 19:17:00,
2013-03-26 15:22:00,41.6,27.1,29.93,North,3,7.0,8.0,56,0.00,,CLR,0.04,297.00,VWS V14.01,2013-03-26 19:22:00,
2013-03-26 15:27:00,42.3,26.4,29.93,North,0,2.0,7.0,53,0.00,,CLR,0.04,297.00,VWS V14.01,2013-03-26 19:27:00,
2013-03-26 15:32:00,43.2,27.2,29.93,North,0,5.0,7.0,53,0.00,,CLR,0.04,331.00,VWS V14.01,2013-03-26 19:32:00,
2013-03-26 15:37:00,43.2,26.8,29.93,North,357,3.0,10.0,52,0.00,,CLR,0.04,174.00,VWS V14.01,2013-03-26 19:37:00,
2013-03-26 15:42:00,42.6,25.8,29.93,North,0,5.0,5.0,51,0.00,,CLR,0.04,109.00,VWS V14.01,2013-03-26 19:42:00,
2013-03-26 15:47:00,42.1,26.7,29.93,NNW,344,6.0,12.0,54,0.00,,CLR,0.04,95.00,VWS V14.01,2013-03-26 19:47:00,
2013-03-26 15:52:00,41.5,26.1,29.93,NNE,25,1.0,4.0,54,0.00,,CLR,0.04,114.00,VWS V14.01,2013-03-26 19:52:00,
2013-03-26 15:57:00,41.5,26.1,29.93,North,1,6.0,8.0,54,0.00,,CLR,0.04,139.00,VWS V14.01,2013-03-26 19:57:00,
2013-03-26 16:02:00,41.8,25.5,29.93,North,6,3.0,6.0,52,0.00,,CLR,0.04,195.00,VWS V14.01,2013-03-26 20:02:00,
2013-03-26 16:08:00,42.1,26.2,29.93,North,7,7.0,9.0,53,0.00,,CLR,0.04,324.00,VWS V14.01,2013-03-26 20:08:00,
2013-03-26 16:13:00,42.6,27.6,29.93,NE,34,4.0,5.0,55,0.00,,CLR,0.04,287.00,VWS V14.01,2013-03-26 20:13:00,
2013-03-26 16:18:00,42.8,25.5,29.93,NNW,337,4.0,8.0,50,0.00,,CLR,0.04,259.00,VWS V14.01,2013-03-26 20:18:00,
2013-03-26 16:23:00,43.1,26.7,29.93,NNE,17,5.0,8.0,52,0.00,,CLR,0.04,271.00,VWS V14.01,2013-03-26 20:23:00,
2013-03-26 16:28:00,43.1,27.1,29.93,North,0,5.0,11.0,53,0.00,,CLR,0.04,230.00,VWS V14.01,2013-03-26 20:28:00,
2013-03-26 16:33:00,43.1,27.6,29.93,North,6,11.0,11.0,54,0.00,,CLR,0.04,308.00,VWS V14.01,2013-03-26 20:33:00,
2013-03-26 16:38:00,43.1,25.7,29.93,North,3,7.0,11.0,50,0.00,,CLR,0.04,318.00,VWS V14.01,2013-03-26 20:38:00,
2013-03-26 16:43:00,42.9,25.1,29.93,North,10,8.0,10.0,49,0.00,,CLR,0.04,255.00,VWS V14.01,2013-03-26 20:43:00,
2013-03-26 16:48:00,42.9,26.0,29.94,NNE,24,5.0,10.0,51,0.00,,CLR,0.04,315.00,VWS V14.01,2013-03-26 20:48:00,
2013-03-26 16:54:00,43.2,26.8,29.94,NNE,30,6.0,10.0,52,0.00,,CLR,0.04,299.00,VWS V14.01,2013-03-26 20:54:00,
2013-03-26 16:59:00,43.3,25.4,29.94,NNE,28,8.0,14.0,49,0.00,,CLR,0.04,301.00,VWS V14.01,2013-03-26 20:59:00,
2013-03-26 17:04:00,43.3,25.9,29.94,NNE,28,3.0,6.0,50,0.00,,CLR,0.04,289.00,VWS V14.01,2013-03-26 21:04:00,
2013-03-26 17:09:00,43.3,25.9,29.94,NNE,25,7.0,11.0,50,0.00,,CLR,0.04,232.00,VWS V14.01,2013-03-26 21:09:00,
2013-03-26 17:14:00,42.9,25.1,29.94,North,4,6.0,11.0,49,0.00,,CLR,0.04,185.00,VWS V14.01,2013-03-26 21:14:00,
2013-03-26 17:19:00,42.5,26.1,29.95,NNE,14,8.0,13.0,52,0.00,,CLR,0.04,146.00,VWS V14.01,2013-03-26 21:19:00,
2013-03-26 17:24:00,42.1,26.2,29.95,NNE,32,4.0,11.0,53,0.00,,CLR,0.04,134.00,VWS V14.01,2013-03-26 21:24:00,
2013-03-26 17:29:00,41.8,26.8,29.95,North,6,7.0,17.0,55,0.00,,CLR,0.04,137.00,VWS V14.01,2013-03-26 21:29:00,
2013-03-26 17:34:00,41.6,26.6,29.95,NE,42,5.0,5.0,55,0.00,,CLR,0.04,143.00,VWS V14.01,2013-03-26 21:34:00,
2013-03-26 17:40:00,41.6,27.1,29.95,NE,52,2.0,7.0,56,0.00,,CLR,0.04,135.00,VWS V14.01,2013-03-26 21:40:00,
2013-03-26 17:45:00,41.8,27.7,29.95,North,0,2.0,4.0,57,0.00,,CLR,0.04,127.00,VWS V14.01,2013-03-26 21:45:00,
2013-03-26 17:50:00,41.8,27.3,29.95,North,0,3.0,5.0,56,0.00,,CLR,0.04,118.00,VWS V14.01,2013-03-26 21:50:00,
2013-03-26 17:55:00,41.8,27.3,29.95,NNE,31,3.0,6.0,56,0.00,,CLR,0.04,106.00,VWS V14.01,2013-03-26 21:55:00,
2013-03-26 18:00:00,41.6,27.1,29.95,NE,51,2.0,6.0,56,0.00,,CLR,0.04,95.00,VWS V14.01,2013-03-26 22:00:00,
2013-03-26 18:05:00,41.6,27.5,29.96,North,0,0.0,5.0,57,0.00,,CLR,0.04,91.00,VWS V14.01,2013-03-26 22:05:00,
2013-03-26 18:10:00,41.5,27.0,29.96,NE,45,4.0,5.0,56,0.00,,CLR,0.04,83.00,VWS V14.01,2013-03-26 22:10:00,
2013-03-26 18:15:00,41.5,26.1,29.96,NNE,23,4.0,7.0,54,0.00,,CLR,0.04,81.00,VWS V14.01,2013-03-26 22:15:00,
2013-03-26 18:20:00,41.3,26.4,29.96,North,11,2.0,7.0,55,0.00,,CLR,0.04,63.00,VWS V14.01,2013-03-26 22:20:00,
2013-03-26 18:25:00,41.2,26.7,29.96,NNE,16,5.0,6.0,56,0.00,,CLR,0.04,56.00,VWS V14.01,2013-03-26 22:25:00,
2013-03-26 18:31:00,40.9,26.9,29.96,NNE,24,9.0,13.0,57,0.00,,CLR,0.04,49.00,VWS V14.01,2013-03-26 22:31:00,
2013-03-26 18:36:00,40.6,27.0,29.98,North,3,9.0,18.0,58,0.00,,CLR,0.04,46.00,VWS V14.01,2013-03-26 22:36:00,
2013-03-26 18:41:00,40.3,27.1,29.98,NNE,25,7.0,18.0,59,0.00,,CLR,0.04,42.00,VWS V14.01,2013-03-26 22:41:00,
2013-03-26 18:46:00,40.1,28.1,29.98,North,4,9.0,16.0,62,0.00,,CLR,0.04,39.00,VWS V14.01,2013-03-26 22:46:00,
2013-03-26 18:52:00,39.9,28.0,29.98,North,3,6.0,16.0,62,0.00,,CLR,0.04,97.00,VWS V14.01,2013-03-26 22:52:00,
2013-03-26 18:57:00,39.9,28.0,29.98,North,0,11.0,13.0,62,0.00,,CLR,0.04,93.00,VWS V14.01,2013-03-26 22:57:00,
2013-03-26 19:02:00,39.9,27.6,29.99,North,359,5.0,11.0,61,0.00,,CLR,0.04,81.00,VWS V14.01,2013-03-26 23:02:00,
2013-03-26 19:07:00,39.9,27.6,29.99,North,11,10.0,14.0,61,0.00,,CLR,0.04,65.00,VWS V14.01,2013-03-26 23:07:00,
2013-03-26 19:12:00,39.8,27.5,29.99,North,1,6.0,10.0,61,0.00,,CLR,0.04,33.00,VWS V14.01,2013-03-26 23:12:00,
2013-03-26 19:17:00,39.5,27.6,30.00,North,10,3.0,13.0,62,0.00,,CLR,0.04,28.00,VWS V14.01,2013-03-26 23:17:00,
2013-03-26 19:22:00,39.2,27.3,30.00,North,0,8.0,8.0,62,0.00,,CLR,0.04,21.00,VWS V14.01,2013-03-26 23:22:00,
2013-03-26 19:27:00,39.1,27.2,30.00,NNW,332,4.0,9.0,62,0.00,,CLR,0.04,16.00,VWS V14.01,2013-03-26 23:27:00,
2013-03-26 19:32:00,38.9,27.4,30.00,North,6,2.0,2.0,63,0.00,,CLR,0.04,7.00,VWS V14.01,2013-03-26 23:32:00,
2013-03-26 19:37:00,38.6,27.5,30.00,NE,40,5.0,7.0,64,0.00,,CLR,0.04,0.00,VWS V14.01,2013-03-26 23:37:00,
2013-03-26 19:42:00,38.5,27.4,30.00,ENE,58,3.0,6.0,64,0.00,,CLR,0.04,0.00,VWS V14.01,2013-03-26 23:42:00,
2013-03-26 19:48:00,38.5,27.0,30.01,NNE,16,7.0,7.0,63,0.00,,CLR,0.04,0.00,VWS V14.01,2013-03-26 23:48:00,
2013-03-26 19:53:00,38.5,27.0,30.01,NNE,17,6.0,11.0,63,0.00,,CLR,0.04,0.00,VWS V14.01,2013-03-26 23:53:00,
2013-03-26 19:58:00,38.5,27.4,30.01,North,4,6.0,11.0,64,0.00,,CLR,0.04,0.00,VWS V14.01,2013-03-26 23:58:00,
2013-03-26 20:03:00,38.3,27.6,30.02,North,11,6.0,11.0,65,0.00,,CLR,0.04,0.00,VWS V14.01,2013-03-27 00:03:00,
2013-03-26 20:08:00,38.2,27.5,30.02,North,1,6.0,14.0,65,0.00,,CLR,0.04,0.00,VWS V14.01,2013-03-27 00:08:00,
2013-03-26 20:13:00,38.1,28.1,30.02,NE,38,12.0,12.0,67,0.00,,CLR,0.04,0.00,VWS V14.01,2013-03-27 00:13:00,
2013-03-26 20:18:00,37.9,27.9,30.02,North,6,6.0,12.0,67,0.00,,CLR,0.04,0.00,VWS V14.01,2013-03-27 00:18:00,
2013-03-26 20:23:00,37.9,27.6,30.02,North,0,6.0,11.0,66,0.00,,CLR,0.04,0.00,VWS V14.01,2013-03-27 00:23:00,
2013-03-26 20:29:00,37.9,27.9,30.02,NNE,21,2.0,11.0,67,0.00,,CLR,0.04,0.00,VWS V14.01,2013-03-27 00:29:00,
2013-03-26 20:34:00,37.9,27.9,30.03,NNE,27,2.0,6.0,67,0.00,,CLR,0.04,0.00,VWS V14.01,2013-03-27 00:34:00,
2013-03-26 20:39:00,37.8,27.8,30.03,NE,34,0.0,7.0,67,0.00,,CLR,0.04,0.00,VWS V14.01,2013-03-27 00:39:00,
2013-03-26 20:44:00,37.8,27.8,30.03,NNE,27,4.0,5.0,67,0.00,,CLR,0.04,0.00,VWS V14.01,2013-03-27 00:44:00,
2013-03-26 20:49:00,37.6,27.6,30.03,NNE,20,3.0,5.0,67,0.00,,CLR,0.04,0.00,VWS V14.01,2013-03-27 00:49:00,
2013-03-26 20:54:00,37.5,27.5,30.03,North,6,3.0,8.0,67,0.00,,CLR,0.04,0.00,VWS V14.01,2013-03-27 00:54:00,
2013-03-26 20:59:00,37.3,27.4,30.03,NNW,336,4.0,8.0,67,0.00,,CLR,0.04,0.00,VWS V14.01,2013-03-27 00:59:00,
2013-03-26 21:04:00,37.2,26.9,30.04,NNE,30,4.0,6.0,66,0.00,,CLR,0.04,0.00,VWS V14.01,2013-03-27 01:04:00,
2013-03-26 21:09:00,37.0,26.7,30.04,NNE,18,3.0,6.0,66,0.00,,CLR,0.04,0.00,VWS V14.01,2013-03-27 01:09:00,
2013-03-26 21:14:00,37.0,26.7,30.04,NNE,25,1.0,8.0,66,0.00,,CLR,0.04,0.00,VWS V14.01,2013-03-27 01:14:00,
2013-03-26 21:20:00,37.2,27.3,30.04,North,0,3.0,8.0,67,0.00,,CLR,0.04,0.00,VWS V14.01,2013-03-27 01:20:00,
2013-03-26 21:25:00,37.2,26.9,30.04,North,0,5.0,10.0,66,0.00,,CLR,0.04,0.00,VWS V14.01,2013-03-27 01:25:00,
2013-03-26 21:30:00,37.3,27.4,30.04,NNE,16,5.0,10.0,67,0.00,,CLR,0.04,0.00,VWS V14.01,2013-03-27 01:30:00,
2013-03-26 21:35:00,37.3,27.4,30.05,NE,41,1.0,6.0,67,0.00,,CLR,0.04,0.00,VWS V14.01,2013-03-27 01:35:00,
2013-03-26 21:40:00,37.2,27.3,30.05,NE,37,2.0,6.0,67,0.00,,CLR,0.04,0.00,VWS V14.01,2013-03-27 01:40:00,
2013-03-26 21:45:00,37.0,27.4,30.05,North,0,3.0,6.0,68,0.00,,CLR,0.04,0.00,VWS V14.01,2013-03-27 01:45:00,
2013-03-26 21:50:00,37.0,27.8,30.06,North,0,2.0,8.0,69,0.00,,CLR,0.04,0.00,VWS V14.01,2013-03-27 01:50:00,
2013-03-26 21:55:00,36.9,27.7,30.06,NE,38,6.0,7.0,69,0.00,,CLR,0.04,0.00,VWS V14.01,2013-03-27 01:55:00,
2013-03-26 22:00:00,36.9,27.7,30.06,North,0,3.0,7.0,69,0.00,,CLR,0.04,0.00,VWS V14.01,2013-03-27 02:00:00,
2013-03-26 22:05:00,36.8,28.0,30.06,NE,40,3.0,6.0,70,0.00,,CLR,0.04,0.00,VWS V14.01,2013-03-27 02:05:00,
2013-03-26 22:10:00,36.6,28.1,30.06,North,0,1.0,6.0,71,0.00,,CLR,0.04,0.00,VWS V14.01,2013-03-27 02:10:00,
2013-03-26 22:16:00,36.3,28.1,30.06,North,0,1.0,3.0,72,0.00,,CLR,0.04,0.00,VWS V14.01,2013-03-27 02:16:00,
2013-03-26 22:21:00,36.0,27.9,30.06,NNW,346,1.0,7.0,72,0.00,,CLR,0.04,0.00,VWS V14.01,2013-03-27 02:21:00,
2013-03-26 22:26:00,35.8,28.0,30.06,NNW,330,0.0,5.0,73,0.00,,CLR,0.04,0.00,VWS V14.01,2013-03-27 02:26:00,
2013-03-26 22:31:00,35.5,27.7,30.06,NNW,335,4.0,5.0,73,0.00,,CLR,0.04,0.00,VWS V14.01,2013-03-27 02:31:00,
2013-03-26 22:36:00,35.3,27.5,30.07,North,0,2.0,6.0,73,0.00,,CLR,0.04,0.00,VWS V14.01,2013-03-27 02:36:00,
2013-03-26 22:41:00,35.3,27.5,30.07,NNE,31,0.0,6.0,73,0.00,,CLR,0.04,0.00,VWS V14.01,2013-03-27 02:41:00,
2013-03-26 22:46:00,35.3,27.5,30.06,NNE,17,1.0,7.0,73,0.00,,CLR,0.04,0.00,VWS V14.01,2013-03-27 02:46:00,
2013-03-26 22:51:00,35.3,27.5,30.06,NE,40,1.0,7.0,73,0.00,,CLR,0.04,0.00,VWS V14.01,2013-03-27 02:51:00,
2013-03-26 22:56:00,35.2,27.4,30.06,SE,138,0.0,2.0,73,0.00,,CLR,0.04,0.00,VWS V14.01,2013-03-27 02:56:00,
2013-03-26 23:01:00,35.0,27.2,30.06,SE,138,1.0,2.0,73,0.00,,CLR,0.04,0.00,VWS V14.01,2013-03-27 03:01:00,
2013-03-26 23:07:00,34.8,27.0,30.06,West,280,0.0,3.0,73,0.00,,CLR,0.04,0.00,VWS V14.01,2013-03-27 03:07:00,
2013-03-26 23:12:00,34.6,27.2,30.06,North,359,0.0,4.0,74,0.00,,CLR,0.04,0.00,VWS V14.01,2013-03-27 03:12:00,
2013-03-26 23:17:00,34.2,26.8,30.07,NE,49,0.0,2.0,74,0.00,,CLR,0.04,0.00,VWS V14.01,2013-03-27 03:17:00,
2013-03-26 23:22:00,33.6,26.5,30.07,SSW,193,3.0,3.0,75,0.00,,CLR,0.04,0.00,VWS V14.01,2013-03-27 03:22:00,
2013-03-26 23:27:00,33.0,26.3,30.07,SW,215,2.0,3.0,76,0.00,,CLR,0.04,0.00,VWS V14.01,2013-03-27 03:27:00,
2013-03-26 23:32:00,32.8,26.4,30.07,SE,145,0.0,0.0,77,0.00,,CLR,0.04,0.00,VWS V14.01,2013-03-27 03:32:00,
2013-03-26 23:37:00,33.0,26.6,30.07,SE,145,0.0,0.0,77,0.00,,CLR,0.04,0.00,VWS V14.01,2013-03-27 03:37:00,
2013-03-26 23:43:00,33.1,26.7,30.07,South,172,0.0,0.0,77,0.00,,CLR,0.04,0.00,VWS V14.01,2013-03-27 03:43:00,
2013-03-26 23:48:00,32.8,26.7,30.08,West,261,0.0,2.0,78,0.00,,CLR,0.04,0.00,VWS V14.01,2013-03-27 03:48:00,
2013-03-26 23:53:00,33.0,27.2,30.08,NE,40,0.0,0.0,79,0.00,,CLR,0.04,0.00,VWS V14.01,2013-03-27 03:53:00,
2013-03-26 23:58:00,33.1,27.6,30.08,NE,41,0.0,2.0,80,0.00,,CLR,0.04,0.00,VWS V14.01,2013-03-27 03:58:00,